Showing default

BEIDOU IGSO-6, 41434

Orbit data source: Space-Track

BEIDOU IGSO-6, 41434 is a payload satellite owned by CNSA (CN) that was launched on Tue, 29 Mar 2016 UTC via a CHANG ZHENG 3A launch vehicle from the Xichang Space Center, China (XSC). Payload-class satellites include a variety of spacecraft equipped with specific instruments for various scientific and technological missions. These include communications satellites like Starlink; space stations such as the ISS; scientific satellites like the Hubble; Earth observation satellites from companies like Planet Labs, Umbra, and HawkEye 360; GPS; miniature CubeSats for education and research; and military/defense satellites.

Not visible in the next 10 days
Identifier
41434, 2016-021A
Orbit
Active
Country
Flag of CNCN / PRC
Related business
Manufacturer
CAST
Mission
Operational Defense Navigation
Bus & Motor
DFH-3, FY-25
Mass
2,300 kg wet, 1,300 kg dry
Launch date (UTC)
2016-03-29 (10 years ago)
Launch vehicle
CHANG ZHENG 3A
Launch site
Xichang Space Center, China (XSC)
Object type
Payload
Rocket body
Debris
Shape & HBR
Box + 2 Pan, 9.0 m
Radar Cross Section
13.998 m², Large (>1 m²)

Expand to show TLE details & history
Last TLE update: 1 day ago

TLE from 1 day ago
0 BEIDOU IGSO-6
1 41434U 16021A   25310.74798894 -.00000167  00000-0  00000-0 0  9998
2 41434  59.9159  40.2612 0058420 229.9005 138.8805  1.00260442 35254
Epoch: 2025-11-06T17:57Z
TLE epoch observation values (Epoch: 2025-11-06T17:57:06.244Z)
Latitude
7.96786°
Longitude
89.4288°
Altitude
35,976.513 km
Speed
3.061 km/s
True Right ascension
02h 59m 37s
True Declination
7° 57' 36"
Sunlit
Object was in partial shadow at epoch
Visualization orbit readout
Latitude
Unknown
Longitude
Unknown
Altitude
Unknown
Speed
Unknown
Apparent Right ascension
Unknown
Apparent Declination
Unknown
Sunlit
N/A
Visualization observer readout
Local Sidereal Time
17:44:09
Azimuth
Unknown
Elevation
Unknown
Doppler factor
Unknown
Orbital elements
Apogee altitude
36,036.017 km
Perigee altitude
35,543.328 km
Semi-major axis
42,167.809 km
Eccentricity
0.00584
Inclination
59.9159°
RAAN
40.2612°
Arg. of periapsis
229.9005°
True anomaly
139.31833°
Mean anomaly
138.8805°
Eccentric anomaly
139.09966°
Mean motion
0.25065 °/min
Orbital period
1,436.25 mins
BSTAR
0
Loading maneuver chart data...
Computing Atmospheric mass density...
Loading historical data...
Loading historical data...
Loading historical data...
Loading historical data...
Loading historical data...
Loading historical data...
Loading historical data...
Other satellites on launch #21 in the year 2016 (2016-03-29 UTC)

Documentation

Showing up to 5 results
|